This is the latest recevied weather packets stored in our database for station/object SQ9NFI-4. If no packets are shown the sender has not sent any weather packets the latest 10 day(s).
| Time | Temp. | Humidity | Pressure | Rain* | Wind** | Luminosity | Snow |
|---|---|---|---|---|---|---|---|
| 1778045078 | 18.33° C | 56% | 1006.8 hPa | 0 mm | - | 176 W/m² | - |
| 1778044777 | 18.33° C | 58% | 1006.8 hPa | 0 mm | - | 161 W/m² | - |
| 1778044477 | 18.33° C | 56% | 1006.8 hPa | 0 mm | - | 146 W/m² | - |
| 1778044178 | 18.33° C | 58% | 1006.8 hPa | 0 mm | - | 142 W/m² | - |
| 1778043877 | 18.33° C | 59% | 1006.8 hPa | 0 mm | - | 128 W/m² | - |
| 1778043577 | 17.78° C | 57% | 1006.8 hPa | 0 mm | - | 46 W/m² | - |
| 1778043278 | 18.33° C | 58% | 1006.8 hPa | 0 mm | - | 108 W/m² | - |
| 1778042977 | 17.78° C | 59% | 1006.8 hPa | 0 mm | - | 86 W/m² | - |
| 1778042677 | 17.78° C | 58% | 1006.8 hPa | 0 mm | - | 37 W/m² | - |
| 1778042377 | 17.78° C | 59% | 1006.8 hPa | 0 mm | - | 82 W/m² | - |
| 1778042077 | 17.22° C | 59% | 1006.8 hPa | 0 mm | - | 76 W/m² | - |
| 1778041778 | 16.67° C | 61% | 1006.8 hPa | 0 mm | - | 68 W/m² | - |
| 1778041477 | 16.67° C | 61% | 1006.8 hPa | 0 mm | - | 35 W/m² | - |
| 1778041177 | 15.56° C | 64% | 1006.8 hPa | 0 mm | - | 51 W/m² | - |
| 1778040877 | 15.56° C | 64% | 1006.8 hPa | 0 mm | - | 26 W/m² | - |
| 1778040578 | 15° C | 65% | 1006.8 hPa | 0 mm | - | 23 W/m² | - |
| 1778040277 | 14.44° C | 66% | 1006.8 hPa | 0 mm | - | 20 W/m² | - |
| 1778039977 | 15.56° C | 63% | 1006.8 hPa | 0 mm | - | 20 W/m² | - |
| 1778039677 | 15° C | 65% | 1006.8 hPa | 0 mm | - | 19 W/m² | - |
| 1778039377 | 14.44° C | 66% | 1006.8 hPa | 0 mm | - | 18 W/m² | - |
| 1778039078 | 13.89° C | 69% | 1006.4 hPa | 0 mm | - | 15 W/m² | - |
| 1778038777 | 13.33° C | 72% | 1006.4 hPa | 0 mm | - | 12 W/m² | - |
| 1778038478 | 12.22° C | 74% | 1006.4 hPa | 0 mm | - | 11 W/m² | - |
| 1778038177 | 11.67° C | 77% | 1006.4 hPa | 0 mm | - | 9 W/m² | - |
| 1778037877 | 11.11° C | 77% | 1006.4 hPa | 0 mm | - | 7 W/m² | - |
* Rain latest hour (hover to see other rain measurements)
** Current wind speed in m/s (hover to see current wind gust speed)